Weather History for Pinedale, WY

Change the Weather History Date:

Friday, November 1, 2013

  Actual Average (KBPI) Record (KBPI)
Temperature  
Mean Temperature 30 °F 32 °F  
Max Temperature 41 °F 47 °F 63 °F (2014)
Min Temperature 19 °F 16 °F -1 °F (2003)
Degree Days  
Heating Degree Days 35 33  
Month to date heating degree days 33  
Since 1 July heating degree days 1613  
Cooling Degree Days 0 0  
Month to date cooling degree days 0  
Year to date cooling degree days 35  
Moisture  
Dew Point 24 °F    
Average Humidity 81    
Maximum Humidity 100    
Minimum Humidity 49    
Precipitation  
Precipitation 0.00 in 0.01 in 0.03 in (1992)
Month to date precipitation 0.01  
Year to date precipitation 5.98  
Sea Level Pressure  
Sea Level Pressure 30.22 in    
Wind  
Wind Speed 7 mph (WNW)    
Max Wind Speed 21 mph    
Max Gust Speed 28 mph    
Visibility 9 miles    
Events Fog , Snow    
T = Trace of Precipitation, MM = Missing Value Source: NWS Daily Summary

Daily Weather History Graph

Daily Weather History Graph

Search for Another Location

Airport:

Trip Planner

Search our weather history database for the weather conditions in past years. The results will help you decide how hot, cold, wet, or windy it might be!

Date:

Astronomy

Nov. 01, 2013 Rise Set
Actual Time 7:53 AM MDT 6:11 PM MDT
Civil Twilight 7:24 AM MDT 6:40 PM MDT
Nautical Twilight 6:50 AM MDT 7:14 PM MDT
Astronomical Twilight 6:17 AM MDT 7:46 PM MDT
Moon 5:47 AM MDT (11/1) 5:08 PM MDT (11/1)
Length of Visible Light 11h 16m
Length of Day
10h 17m
Waning Crescent, 4% of the Moon is Illuminated
Nov 1
Waning Crescent
Nov 3
New
Nov 9
First Quarter
Nov 17
Full
Nov 25
Last Quarter

Hourly Weather History & Observations

Time (MDT) Temp. Windchill Dew Point Humidity Pressure Visibility Wind Dir Wind Speed Gust Speed Precip Events Conditions
12:15 AM 23.0 °F - 23.0 °F 100% 30.07 in 0.5 mi Calm Calm - N/A Fog Light Freezing Fog
12:35 AM 21.2 °F - 21.2 °F 100% 30.08 in 0.5 mi Calm Calm - N/A Fog Light Freezing Fog
12:55 AM 23.0 °F - 23.0 °F 100% 30.08 in 0.2 mi Calm Calm - N/A Snow Light Snow
1:15 AM 21.2 °F - 21.2 °F 100% 30.08 in 0.5 mi Calm Calm - N/A Fog Light Freezing Fog
1:35 AM 21.2 °F - 21.2 °F 100% 30.09 in 0.2 mi Calm Calm - N/A Fog Light Freezing Fog
1:55 AM 19.4 °F 12.8 °F 19.4 °F 100% 30.10 in 0.2 mi West 4.6 mph - N/A Fog Light Freezing Fog
2:15 AM 19.4 °F 11.5 °F 19.4 °F 100% 30.09 in 0.5 mi NW 5.8 mph - N/A Fog Light Freezing Fog
2:35 AM 19.4 °F - 19.4 °F 100% 30.11 in 7.0 mi Calm Calm - N/A   Clear
2:55 AM 19.4 °F 12.8 °F 19.4 °F 100% 30.11 in 10.0 mi WSW 4.6 mph - N/A   Clear
3:15 AM 19.4 °F 8.6 °F 19.4 °F 100% 30.11 in 10.0 mi West 9.2 mph - N/A   Clear
3:35 AM 23.0 °F 13.9 °F 23.0 °F 100% 30.13 in 10.0 mi West 8.1 mph - N/A   Clear
3:55 AM 23.0 °F 17.0 °F 23.0 °F 100% 30.13 in 10.0 mi WNW 4.6 mph - N/A   Mostly Cloudy
4:15 AM 26.6 °F 16.8 °F 26.6 °F 100% 30.14 in 10.0 mi NW 10.4 mph - N/A   Mostly Cloudy
4:35 AM 28.4 °F 19.7 °F 28.4 °F 100% 30.14 in 10.0 mi NW 9.2 mph - N/A   Overcast
4:55 AM 28.4 °F 19.1 °F 28.4 °F 100% 30.15 in 10.0 mi NW 10.4 mph - N/A   Overcast
5:15 AM 28.4 °F 19.7 °F 26.6 °F 93% 30.16 in 10.0 mi NW 9.2 mph - N/A   Overcast
5:35 AM 28.4 °F 19.7 °F 26.6 °F 93% 30.17 in 10.0 mi NW 9.2 mph - N/A   Mostly Cloudy
5:55 AM 28.4 °F 19.1 °F 26.6 °F 93% 30.17 in 10.0 mi NW 10.4 mph - N/A   Mostly Cloudy
6:15 AM 26.6 °F 22.6 °F 24.8 °F 93% 30.18 in 10.0 mi West 3.5 mph - N/A   Mostly Cloudy
6:35 AM 23.0 °F 13.9 °F 21.2 °F 93% 30.19 in 10.0 mi West 8.1 mph - N/A   Scattered Clouds
6:55 AM 23.0 °F 13.1 °F 23.0 °F 100% 30.19 in 10.0 mi WNW 9.2 mph - N/A   Scattered Clouds
7:15 AM 24.8 °F 16.9 °F 23.0 °F 93% 30.19 in 10.0 mi WNW 6.9 mph - N/A   Mostly Cloudy
7:35 AM 23.0 °F 13.9 °F 21.2 °F 93% 30.19 in 10.0 mi West 8.1 mph - N/A   Scattered Clouds
7:55 AM 21.2 °F 12.6 °F 21.2 °F 100% 30.20 in 10.0 mi West 6.9 mph - N/A   Scattered Clouds
8:15 AM 21.2 °F 13.6 °F 19.4 °F 93% 30.21 in 10.0 mi NW 5.8 mph - N/A   Scattered Clouds
8:35 AM 23.0 °F 13.9 °F 21.2 °F 93% 30.22 in 10.0 mi NW 8.1 mph - N/A   Clear
8:55 AM 24.8 °F 15.3 °F 23.0 °F 93% 30.24 in 10.0 mi WNW 9.2 mph - N/A   Clear
9:15 AM 28.4 °F 19.7 °F 26.6 °F 93% 30.25 in 10.0 mi WNW 9.2 mph - N/A   Scattered Clouds
9:35 AM 30.2 °F 21.3 °F 26.6 °F 86% 30.25 in 10.0 mi NW 10.4 mph - N/A   Clear
9:55 AM 32.0 °F 23.0 °F 26.6 °F 80% 30.25 in 10.0 mi WNW 11.5 mph - N/A   Clear
10:15 AM 32.0 °F 22.5 °F 26.6 °F 80% 30.25 in 10.0 mi NW 12.7 mph - N/A   Clear
10:35 AM 32.0 °F 21.6 °F 26.6 °F 80% 30.25 in 10.0 mi NW 15.0 mph - N/A   Clear
10:55 AM 33.8 °F 23.5 °F 26.6 °F 75% 30.26 in 10.0 mi WNW 16.1 mph - N/A   Clear
11:15 AM 35.6 °F 25.5 °F 26.6 °F 70% 30.26 in 10.0 mi NW 17.3 mph 25.3 mph N/A   Clear
11:35 AM 35.6 °F 25.2 °F 24.8 °F 65% 30.26 in 10.0 mi NW 18.4 mph 25.3 mph N/A   Clear
11:55 AM 37.4 °F 27.5 °F 24.8 °F 60% 30.27 in 10.0 mi WNW 18.4 mph 26.5 mph N/A   Clear
12:15 PM 37.4 °F 26.9 °F 23.0 °F 56% 30.27 in 10.0 mi NW 20.7 mph 27.6 mph N/A   Clear
12:35 PM 37.4 °F 27.5 °F 23.0 °F 56% 30.27 in 10.0 mi NW 18.4 mph 26.5 mph N/A   Clear
12:55 PM 37.4 °F 28.9 °F 23.0 °F 56% 30.27 in 10.0 mi West 13.8 mph 24.2 mph N/A   Clear
1:15 PM 39.2 °F 30.8 °F 23.0 °F 52% 30.26 in 10.0 mi WNW 15.0 mph 24.2 mph N/A   Clear
1:35 PM 39.2 °F 30.5 °F 23.0 °F 52% 30.25 in 10.0 mi WNW 16.1 mph 26.5 mph N/A   Clear
1:55 PM 41.0 °F 32.8 °F 24.8 °F 53% 30.25 in 10.0 mi WNW 16.1 mph 23.0 mph N/A   Clear
2:15 PM 41.0 °F 32.8 °F 23.0 °F 49% 30.25 in 10.0 mi WNW 16.1 mph 27.6 mph N/A   Clear
3:55 PM 41.0 °F 33.9 °F 23.0 °F 49% 30.25 in 10.0 mi WNW 12.7 mph 19.6 mph N/A   Clear
4:15 PM 41.0 °F 32.2 °F 23.0 °F 49% 30.25 in 10.0 mi West 18.4 mph 23.0 mph N/A   Clear
4:35 PM 41.0 °F 33.1 °F 23.0 °F 49% 30.25 in 10.0 mi WNW 15.0 mph 20.7 mph N/A   Clear
4:55 PM 41.0 °F 32.8 °F 23.0 °F 49% 30.25 in 10.0 mi WNW 16.1 mph 21.9 mph N/A   Clear
5:15 PM 39.2 °F 30.8 °F 23.0 °F 52% 30.25 in 10.0 mi WNW 15.0 mph 21.9 mph N/A   Clear
5:35 PM 37.4 °F 28.5 °F 24.8 °F 60% 30.26 in 10.0 mi NW 15.0 mph - N/A   Clear
5:55 PM 35.6 °F 26.6 °F 23.0 °F 60% 30.26 in 10.0 mi WNW 13.8 mph - N/A   Clear
6:15 PM 33.8 °F 24.3 °F 23.0 °F 65% 30.26 in 10.0 mi NW 13.8 mph - N/A   Clear
6:35 PM 33.8 °F 25.3 °F 23.0 °F 65% 30.26 in 10.0 mi NW 11.5 mph - N/A   Clear
6:55 PM 32.0 °F - 24.8 °F 75% 30.26 in 10.0 mi Calm Calm - N/A   Clear
7:15 PM 30.2 °F 23.4 °F 24.8 °F 80% 30.26 in 10.0 mi WSW 6.9 mph - N/A   Clear
7:35 PM 32.0 °F 24.2 °F 24.8 °F 75% 30.26 in 10.0 mi West 9.2 mph - N/A   Clear
7:55 PM 30.2 °F 23.4 °F 23.0 °F 75% 30.27 in 10.0 mi WSW 6.9 mph - N/A   Clear
8:15 PM 30.2 °F 23.4 °F 24.8 °F 80% 30.27 in 10.0 mi West 6.9 mph - N/A   Clear
8:35 PM 30.2 °F 22.6 °F 24.8 °F 80% 30.27 in 10.0 mi West 8.1 mph - N/A   Scattered Clouds
8:55 PM 30.2 °F 22.6 °F 23.0 °F 75% 30.27 in 10.0 mi WNW 8.1 mph - N/A   Scattered Clouds
9:15 PM 28.4 °F 21.2 °F 23.0 °F 80% 30.27 in 10.0 mi West 6.9 mph - N/A   Clear
9:35 PM 28.4 °F 19.7 °F 23.0 °F 80% 30.27 in 10.0 mi West 9.2 mph - N/A   Clear
9:55 PM 28.4 °F 19.7 °F 23.0 °F 80% 30.27 in 10.0 mi West 9.2 mph - N/A   Clear
10:15 PM 26.6 °F 22.6 °F 23.0 °F 86% 30.27 in 10.0 mi North 3.5 mph - N/A   Clear
10:35 PM 26.6 °F - 23.0 °F 86% 30.28 in 10.0 mi Calm Calm - N/A   Clear
10:55 PM 26.6 °F 21.2 °F 23.0 °F 86% 30.28 in 10.0 mi NW 4.6 mph - N/A   Clear
11:15 PM 26.6 °F - 23.0 °F 86% 30.27 in 10.0 mi Calm Calm - N/A   Clear
11:35 PM 24.8 °F 19.1 °F 23.0 °F 93% 30.27 in 10.0 mi WNW 4.6 mph - N/A   Clear
11:55 PM 23.0 °F - 23.0 °F 100% 30.27 in 10.0 mi Calm Calm - N/A   Clear